EW5404 Weather Reports


time (UTC)temp
C
wind
direction
speed
KPH
gust
KPH
rain 1hr
cm
rain 24hr
cm
rain mn
cm
humidity
%
barometer
mb
20260509013034 17 5 0.0 0.0 0.00 0.00 0.00 69 1015.5
20260509011533 18 5 0.0 0.0 0.00 0.00 0.00 68 1015.4
20260509010037 18 5 0.0 0.0 0.00 0.00 0.00 65 1015.3
20260509004536 18 5 0.0 1.6 0.00 0.00 0.00 64 1015.3
20260509003032 18 5 0.0 0.0 0.00 0.00 0.00 64 1015.2
20260509001533 18 5 0.0 0.0 0.00 0.00 0.00 63 1015.2
20260509000031 19 82 0.0 4.8 0.00 0.00 0.00 64 1015.1
20260508234531 20 82 0.0 4.8 0.00 0.00 0.00 61 1014.9
20260508233030 20 91 0.0 4.8 0.00 0.00 0.00 61 1015.0
20260508231529 20 345 0.0 0.0 0.00 0.00 0.00 61 1015.0
20260508230029 20 345 0.0 0.0 0.00 0.00 0.00 62 1014.9
20260508224535 20 345 0.0 0.0 0.00 0.00 0.00 60 1014.9
20260508223041 20 345 0.0 4.8 0.00 0.00 0.00 58 1014.9
20260508221527 20 342 0.0 3.2 0.00 0.00 0.00 57 1014.9
20260508220030 21 343 0.0 4.8 0.00 0.00 0.00 57 1014.6
20260508214548 21 9 0.0 6.4 0.00 0.00 0.00 55 1014.7
20260508213025 21 337 0.0 4.8 0.00 0.00 0.00 57 1014.8
20260508211524 21 348 0.0 6.4 0.00 0.00 0.00 54 1014.9
20260508210025 21 345 0.0 9.7 0.00 0.00 0.00 50 1014.8
20260508204524 22 217 1.6 8.0 0.00 0.00 0.00 54 1014.9
20260508203023 21 335 0.0 3.2 0.00 0.00 0.00 53 1014.9
20260508201522 21 335 1.6 12.9 0.00 0.00 0.00 50 1015.0
20260508200023 21 327 0.0 14.5 0.00 0.00 0.00 48 1015.3
20260508194522 22 292 1.6 9.7 0.00 0.00 0.00 49 1015.5
20260508193011 22 325 0.0 12.9 0.00 0.00 0.00 47 1015.7
20260508191510 21 355 0.0 6.4 0.00 0.00 0.00 48 1015.9
20260508190024 21 308 1.6 11.3 0.00 0.00 0.00 50 1016.0
20260508184522 22 186 0.0 8.0 0.00 0.00 0.00 49 1016.4
20260508183016 22 42 0.0 11.3 0.00 0.00 0.00 48 1016.7
20260508181506 21 42 1.6 8.0 0.00 0.00 0.00 47 1016.8
20260508180004 21 228 0.0 6.4 0.00 0.00 0.00 47 1017.1
20260508174503 21 117 1.6 8.0 0.00 0.00 0.00 50 1017.1
20260508173001 21 186 4.8 8.0 0.00 0.00 0.00 50 1017.2
20260508171606 21 80 0.0 8.0 0.00 0.00 0.00 53 1017.4
20260508170107 20 306 0.0 4.8 0.00 0.00 0.00 52 1017.7
20260508164600 20 12 0.0 12.9 0.00 0.00 0.00 52 1017.9
20260508163054 20 153 0.0 8.0 0.00 0.00 0.00 51 1018.2
20260508161554 19 65 1.6 8.0 0.00 0.00 0.00 55 1018.3
20260508160048 19 42 0.0 8.0 0.00 0.00 0.00 53 1018.4
20260508154546 20 175 3.2 12.9 0.00 0.00 0.00 57 1018.8
20260508153049 18 111 0.0 0.0 0.00 0.00 0.00 56 1018.8
20260508151540 18 171 1.6 9.7 0.00 0.00 0.00 57 1018.9
20260508150038 18 60 0.0 4.8 0.00 0.00 0.00 60 1018.8
20260508144541 18 44 1.6 8.0 0.00 0.00 0.00 58 1018.9
20260508143035 17 144 1.6 8.0 0.00 0.00 0.00 60 1018.6
20260508141534 17 153 1.6 9.7 0.00 0.00 0.00 62 1018.8
20260508140029 17 111 1.6 9.7 0.00 0.00 0.00 64 1019.1
20260508134530 16 355 3.2 8.0 0.00 0.28 0.00 65 1019.1
20260508133025 16 174 0.0 11.3 0.00 0.28 0.00 68 1019.1
20260508131520 15 165 0.0 8.0 0.00 0.28 0.00 72 1019.0
20260508130028 15 53 1.6 8.0 0.00 0.28 0.00 75 1018.8
20260508124514 14 85 0.0 4.8 0.00 0.33 0.00 79 1018.6
20260508123015 13 267 0.0 3.2 0.00 0.33 0.00 80 1018.5
20260508121510 13 267 0.0 0.0 0.00 0.33 0.00 80 1018.4
20260508120007 12 267 0.0 0.0 0.00 0.33 0.00 84 1018.1
20260508114505 11 266 0.0 0.0 0.00 0.97 0.00 86 1018.2
20260508113004 11 266 0.0 0.0 0.00 0.97 0.00 84 1017.7
20260508111600 11 266 0.0 0.0 0.00 0.97 0.00 84 1017.4
20260508110108 12 266 0.0 0.0 0.00 0.97 0.00 82 1017.2
20260508104557 12 266 0.0 0.0 0.00 1.37 0.00 82 1016.9
20260508103102 12 254 0.0 0.0 0.00 1.37 0.00 79 1016.8
20260508101555 12 254 0.0 0.0 0.00 1.37 0.00 79 1016.5
20260508100050 12 254 0.0 0.0 0.00 1.37 0.00 80 1016.2
20260508094548 12 254 0.0 0.0 0.00 1.50 0.00 81 1015.8
20260508093048 12 254 0.0 0.0 0.00 1.50 0.00 79 1015.8
20260508091546 12 254 0.0 6.4 0.00 1.50 0.00 76 1015.8
20260508090050 12 294 0.0 0.0 0.00 1.50 0.00 78 1015.6
20260508084544 12 294 0.0 3.2 0.00 1.91 0.00 82 1015.7
20260508083048 11 294 0.0 1.6 0.00 1.91 0.00 85 1015.5
20260508081542 11 294 0.0 0.0 0.00 1.91 0.00 88 1015.5
20260508080041 11 294 0.0 0.0 0.00 1.91 0.00 90 1015.4
20260508074540 11 294 0.0 0.0 0.00 2.26 0.00 90 1015.5
20260508073042 11 294 0.0 0.0 0.00 2.26 0.00 89 1015.4
20260508071537 11 294 0.0 0.0 0.00 2.26 0.00 89 1015.4
20260508070036 11 294 0.0 0.0 0.00 2.26 0.00 88 1015.2
20260508064539 11 294 0.0 0.0 0.00 2.84 0.00 87 1015.0
20260508063046 12 294 0.0 0.0 0.00 2.84 0.00 87 1015.1
20260508061531 12 294 0.0 0.0 0.00 2.84 0.00 85 1015.1
20260508060028 12 294 0.0 0.0 0.00 2.84 0.00 84 1015.1
20260508054526 12 294 0.0 0.0 0.00 3.53 0.00 83 1015.2
20260508053023 13 294 0.0 0.0 0.00 3.53 0.00 80 1015.3
20260508051518 13 294 0.0 0.0 0.00 3.53 0.00 79 1015.1
20260508050018 13 294 0.0 0.0 0.00 3.53 0.00 78 1015.0
20260508044513 14 294 0.0 0.0 0.00 4.14 0.00 77 1014.9
20260508043012 14 294 0.0 0.0 0.00 4.14 0.00 76 1014.9
20260508041508 14 294 0.0 0.0 0.00 4.14 0.00 75 1014.7
20260508040005 15 294 0.0 0.0 0.00 4.14 4.14 75 1014.5
20260508034502 15 294 0.0 0.0 0.00 4.14 4.14 72 1014.8
20260508033002 15 294 0.0 0.0 0.00 4.14 4.14 70 1014.7
20260508031600 16 294 0.0 0.0 0.00 4.14 4.14 69 1014.7
20260508030059 16 294 0.0 0.0 0.00 4.14 4.14 68 1014.5
20260508024556 16 294 0.0 0.0 0.00 4.17 4.14 68 1014.5
20260508023055 16 294 0.0 8.0 0.00 4.17 4.14 68 1014.0
20260508021558 16 210 0.0 6.4 0.00 4.17 4.14 67 1013.8
20260508020055 17 227 0.0 9.7 0.00 4.17 4.14 68 1013.6
20260508014550 17 270 0.0 0.0 0.00 5.77 4.14 69 1013.4